Location: Newark
(44.0692°N, 7.2567°E)
Time: 08:09:37
(UTC+00:00)

ISS - Visible Passes

Search period start: 20 July 2019 00:00
Search period end: 30 July 2019 00:00
Orbit: 409 x 418 km, 51.6° (Epoch: 20 July)

Date Brightness Start Highest point End Pass type
(mag) Time Alt. Az. Time Alt. Az. Time Alt. Az.
20 Jul -3.2 01:05:19 10° NW 01:08:36 57° NNE 01:09:06 50° ENE visible
20 Jul -2.3 02:45:52 19° SSW 02:45:52 19° SSW 02:47:38 10° S visible
20 Jul -1.9 21:01:30 10° W 21:04:33 32° NNW 21:07:36 10° NE visible
20 Jul -1.2 22:39:15 10° NW 22:41:55 21° N 22:44:34 10° NE visible
21 Jul -1.9 00:16:02 10° NW 00:18:00 28° NNW 00:18:00 28° NNW visible
21 Jul -2.5 20:11:54 10° W 20:15:07 43° NNW 20:18:21 10° NE visible
21 Jul -1.2 21:49:42 10° WNW 21:52:23 22° N 21:55:03 10° NE visible
21 Jul -1.8 23:26:46 10° NW 23:29:24 29° N 23:29:24 29° N visible
22 Jul -1.3 21:00:04 10° WNW 21:02:52 24° N 21:05:38 10° NE visible
22 Jul -1.6 22:37:26 10° NW 22:40:16 25° NNE 22:41:10 22° NE visible
23 Jul -1.6 20:10:24 10° WNW 20:13:20 27° NNW 20:16:17 10° NE visible
23 Jul -1.4 21:48:01 10° NW 21:50:44 22° N 21:53:06 12° NE visible
23 Jul -1.3 23:24:40 10° NW 23:25:55 20° NW 23:25:55 20° NW visible
24 Jul -1.3 20:58:31 10° NW 21:01:11 21° N 21:03:50 10° NE visible
24 Jul -2.1 22:35:22 10° NW 22:37:56 33° N 22:37:56 33° N visible
25 Jul -1.3 20:08:54 10° WNW 20:11:36 22° N 20:14:19 10° NE visible
25 Jul -1.9 21:46:02 10° NW 21:49:00 28° NNE 21:50:00 24° NE visible
25 Jul -0.8 23:22:36 10° WNW 23:22:49 11° WNW 23:22:49 11° WNW visible
26 Jul -1.6 20:56:39 10° NW 20:59:27 24° N 21:02:07 11° ENE visible
26 Jul -1.8 22:33:13 10° NW 22:34:56 27° NW 22:34:56 27° NW visible
27 Jul -1.5 20:07:10 10° NW 20:09:52 22° N 20:12:33 10° ENE visible
27 Jul -2.9 21:43:52 10° NW 21:47:04 46° NNE 21:47:04 46° NNE visible
28 Jul -2.3 20:54:31 10° NW 20:57:36 33° NNE 20:59:14 21° ENE visible
28 Jul -1.2 22:31:08 10° WNW 22:32:03 17° WNW 22:32:03 17° WNW visible
29 Jul -1.9 20:05:08 10° NW 20:08:03 27° NNE 20:10:57 10° ENE visible
29 Jul -3.0 21:41:41 10° WNW 21:44:15 50° WNW 21:44:15 50° WNW visible
